Regional Weather Roundup
Issued by NWS Kansas City/Pleasant Hill, MO

Home | Current Version | Previous Version | Graphics & Text | Print | Product List | Glossary Off
Versions: 1 2 3 4 5 6 7 8 9 10 11 12 13 14 15 16 17 18 19 20 21 22 23 24 25 26 27 28 29 30 31 32 33 34 35 36 37 38 39 40 41 42 43 44 45 46 47 48 49 50

000
ASUS43 KEAX 280610
RWREAX

WEATHER ROUNDUP FOR EASTERN KANSAS AND NORTHWEST MISSOURI
NATIONAL WEATHER SERVICE KANSAS CITY/PLEASANT HILL MO
100 AM CDT THU APR 28 2016

KSZ040-057-103>105-MOZ028-029-037-043-280700-
...KANSAS CITY METROPOLITAN AREA...

CITY           SKY/WX    TMP DP  RH WIND       PRES   REMARKS
K.C. INTL      CLEAR     50  39  66 W15       29.71R
6HR MIN TEMP:  49; 6HR MAX TEMP:  59;

K.C. DOWNTOWN  CLEAR     53  42  66 W7        29.72R
6HR MIN TEMP:  53; 6HR MAX TEMP:  63;

LEES SUMMIT    CLEAR     53  45  74 W10       29.73R
6HR MIN TEMP:  53; 6HR MAX TEMP:  63;

OLATHE - IXD   CLEAR     51  41  68 W12       29.74R
6HR MIN TEMP:  51; 6HR MAX TEMP:  62;

OLATHE - OJC   CLEAR     51  39  63 W12       29.73R
6HR MIN TEMP:  51; 6HR MAX TEMP:  62;

LAWRENCE       CLEAR     50  40  68 W13       29.74R

$$

MOZ001>008-011>017-020>025-030>033-038>040-044>046-053-054-280700-
...NORTHERN AND CENTRAL MISSOURI...

CITY           SKY/WX    TMP DP  RH WIND       PRES   REMARKS
ST. JOSEPH     CLOUDY    49  40  71 W14G23    29.69R
6HR MIN TEMP:  49; 6HR MAX TEMP:  57;

MOSBY            N/A     52  45  76 W8        29.72R
WARRENSBURG    CLEAR     52  46  82 S5        29.73R
WHITEMAN AFB   CLEAR     51  51 100 S6        29.72R
6HR MIN TEMP:  51; 6HR MAX TEMP:  66; 6HR PCP:  0.01;

CLINTON        CLEAR     55  50  82 SW7       29.75R
SEDALIA        CLEAR     55  51  86 S5        29.74R
6HR MIN TEMP:  53; 6HR MAX TEMP:  71; 6HR PCP: TRACE;

WARSAW         NOT AVBL
CHILLICOTHE      N/A     47  50 100 CALM      29.70S
6HR MIN TEMP:  47; 6HR MAX TEMP:  57;

KIRKSVILLE     CLEAR     48  46  93 SE3       29.71F
6HR MIN TEMP:  48; 6HR MAX TEMP:  66; 6HR PCP:  0.11;


$$

MOZ041-047>049-056>058-063>065-088>090-097-280700-
...EASTERN AND SOUTHERN MISSOURI...

CITY           SKY/WX    TMP DP  RH WIND       PRES   REMARKS
ST. LOUIS INTL CLEAR     66  53  63 W14       29.71R
6HR MIN TEMP:  66; 6HR MAX TEMP:  75;

SPIRIT OF STL  CLEAR     64  54  69 W12       29.71R
COLUMBIA       CLEAR     56  51  84 CALM      29.74R
JEFFERSON CITY CLEAR     59  53  80 CALM      29.74R
ROLLA          CLEAR     54  50  86 W6        29.74R
OSAGE BEACH    CLEAR     55  45  67 SW3       29.76R
SPRINGFIELD    PTCLDY    51  46  83 SW6       29.77R
JOPLIN         CLEAR     52  49  89 W6        29.80R
WEST PLAINS    CLEAR     59  49  69 MISG      29.79R

$$

IAZ060-094-KSZ022-034>040-054-083-096-NEZ052-066-093-280700-
...KANSAS...SOUTHEAST NEBRASKA AND IOWA...

CITY           SKY/WX    TMP DP  RH WIND       PRES   REMARKS
TOPEKA         CLEAR     49  37  63 W15       29.74R
6HR MIN TEMP:  49; 6HR MAX TEMP:  59;

MANHATTAN      CLEAR     47  36  65 W14G23    29.77R
EMPORIA        CLEAR     49  41  74 NW12      29.78R
CHANUTE        CLEAR     53  44  71 W10       29.80R
WICHITA        CLEAR     48  41  76 W5        29.82R
OMAHA          CLOUDY    47  44  90 SE7       29.61S
LINCOLN        CLOUDY    50  46  86 N14       29.65R
FALLS CITY     CLOUDY    48  42  80 SW20G26   29.64R
LAMONI         CLOUDY    47  43  86 S5        29.67S
DES MOINES     PTCLDY    49  46  90 S7        29.66R

$$




USA.gov is the U.S. government's official web portal to all federal, state and local government web resources and services.